TimeEST,TemperatureF,Dew PointF,Humidity,Sea Level PressureIn,VisibilityMPH,Wind Direction,Wind SpeedMPH,Gust SpeedMPH,PrecipitationIn,Events,Conditions,WindDirDegrees,DateUTC
12:52 AM,-14.1,-20.9,71,30.24,10.0,WSW,18.4,25.3,N/A,,Clear,240,2014-01-07 05:52:00
1:52 AM,-14.1,-20.9,71,30.24,10.0,SW,18.4,25.3,N/A,,Clear,230,2014-01-07 06:52:00
2:52 AM,-13.0,-20.0,71,30.27,10.0,WSW,21.9,27.6,N/A,,Clear,240,2014-01-07 07:52:00
3:52 AM,-13.0,-20.0,71,30.27,10.0,SW,16.1,25.3,N/A,,Clear,230,2014-01-07 08:52:00
4:52 AM,-13.0,-18.9,75,30.27,10.0,SW,18.4,27.6,N/A,,Clear,230,2014-01-07 09:52:00
5:52 AM,-13.0,-18.9,75,30.28,10.0,SW,15.0,24.2,N/A,,Clear,230,2014-01-07 10:52:00
6:52 AM,-13.0,-18.9,75,30.30,10.0,SW,16.1,21.9,N/A,,Clear,220,2014-01-07 11:52:00
7:52 AM,-11.9,-18.9,71,30.31,10.0,SW,15.0,23.0,N/A,,Clear,230,2014-01-07 12:52:00
8:52 AM,-11.0,-18.0,71,30.33,10.0,SW,24.2,31.1,N/A,,Clear,230,2014-01-07 13:52:00
9:52 AM,-9.9,-17.0,71,30.35,10.0,WSW,21.9,27.6,N/A,,Clear,240,2014-01-07 14:52:00
10:52 AM,-8.0,-15.0,71,30.38,8.0,WSW,26.5,32.2,N/A,,Clear,240,2014-01-07 15:52:00
11:52 AM,-6.0,-14.1,68,30.36,10.0,WSW,18.4,28.8,N/A,,Clear,240,2014-01-07 16:52:00
12:52 PM,-5.1,-13.0,69,30.34,10.0,SW,15.0,26.5,0.33,,Clear,230,2014-01-07 17:52:00
1:52 PM,-4.0,-13.0,65,30.33,10.0,WSW,21.9,27.6,N/A,,Clear,240,2014-01-07 18:52:00
2:52 PM,-2.9,-11.0,68,30.33,10.0,SW,8.1,21.9,N/A,,Clear,220,2014-01-07 19:52:00
3:52 PM,-2.0,-11.0,66,30.35,10.0,SW,18.4,33.4,N/A,,Clear,230,2014-01-07 20:52:00
4:52 PM,-0.9,-9.9,66,30.35,10.0,SW,11.5,20.7,N/A,,Clear,230,2014-01-07 21:52:00
5:52 PM,-2.0,-9.9,69,30.35,10.0,WSW,13.8,21.9,N/A,,Clear,240,2014-01-07 22:52:00
6:52 PM,-0.9,-9.9,66,30.36,10.0,SW,9.2,-,0.10,,Clear,230,2014-01-07 23:52:00
7:52 PM,-2.9,-9.9,72,30.37,10.0,SW,5.8,-,0.02,,Clear,230,2014-01-08 00:52:00
8:52 PM,-2.9,-9.0,75,30.39,10.0,SW,6.9,-,0.07,,Clear,230,2014-01-08 01:52:00
9:52 PM,-0.0,-6.0,76,30.39,10.0,SW,9.2,-,0.74,,Clear,220,2014-01-08 02:52:00
10:52 PM,1.0,-5.1,75,30.39,10.0,SW,6.9,-,0.31,,Clear,220,2014-01-08 03:52:00
11:52 PM,1.0,-4.0,79,30.39,10.0,SSW,4.6,-,N/A,,Clear,210,2014-01-08 04:52:00